Вернуться в каталог

STARLINK-31822

АктивенСвязьVLEO
NORAD 59752·PAYLOAD·🇺🇸 United States

Запущен May 13, 2024 с Cape Canaveral Space Force Station

Loading…

Ближайшие Пролёты (ближайшие 24 часа)

TLE

СвежийSource: CelesTrak SupGP

Эпоха: Sep 15, 2026, 02:02 UTC

1 59752C 24090Y   26258.08520833 -.00013307  00000+0 -48207-3 0  2582
2 59752  43.0011 193.7683 0001053 267.9449 217.0260 15.27579311    16

Отслеживайте STARLINK-31822 в реальном времени с AllMySat

Download on the App Store